Location: Stoke Bliss
(52.2667°N, 2.5167°W)
Time: 17:55:06
(UTC+00:00)

SKYMED 2 - Pass Details

Date: 03 March 2021
Orbit: 621 x 623 km, 97.9° (Epoch: 17 April)

Event Time Altitude Azimuth Distance (km) Brightness Sun altitude
Rises 18:30:18 0° 14° (NNE) 2,920 6.8 -6.4°
Reaches altitude 10° 18:32:30 10° 14° (NNE) 2,008 6.0 -6.8°
Maximum altitude 18:36:53 90° 334° (NNW) 631 3.6 -7.4°
Drops below altitude 10° 18:41:14 10° 196° (SSW) 1,991 6.4 -8.1°
Sets 18:43:24 0° 196° (SSW) 2,892 7.2 -8.4°
